, CO

(GMT )
Cottonwood Pass

Weather History for K7BM - September, 2013

Change the Weather History Date:

Monday, September 30, 2013

  Actual Average Record
Temperature  
Mean Temperature 57 °F -  
Max Temperature 68 °F - - ()
Min Temperature 46 °F - - ()
Degree Days  
Heating Degree Days 8    
Growing Degree Days 7 (Base 50)    
Moisture  
Dew Point 17 °F    
Average Humidity 21    
Maximum Humidity 27    
Minimum Humidity 14    
Precipitation  
Precipitation 0.00 in - - ()
Sea Level Pressure  
Sea Level Pressure 30.24 in    
Wind  
Wind Speed 10 mph (WNW)    
Max Wind Speed 25 mph    
Max Gust Speed 48 mph    
Visibility 10 miles    
Events      
Averages and records for this station are not official NWS values.
T = Trace of Precipitation, MM = Missing Value Source: NWS Daily Summary

Daily Weather History Graph

Daily Weather History Graph

Search for Another Location

Airport or City:

Trip Planner

Search our weather history database for the weather conditions in past years. The results will help you decide how hot, cold, wet, or windy it might be!

Date:

Astronomy

Sep. 30, 2013 Rise Set
Actual Time 7:00 AM MDT 6:48 PM MDT
Civil Twilight 6:33 AM MDT 7:15 PM MDT
Nautical Twilight 6:02 AM MDT 7:46 PM MDT
Astronomical Twilight 5:31 AM MDT 8:17 PM MDT
Moon 2:42 AM MDT (9/30) 4:19 PM MDT (9/30)
Length of Visible Light 12h 41m
Length of Day
11h 48m
Waning Crescent, 18% of the Moon is Illuminated
Sep 30
Waning Crescent
Oct 4
New
Oct 11
First Quarter
Oct 18
Full
Oct 26
Last Quarter

Hourly Weather History & Observations

Time (MDT) Temp. Windchill Dew Point Humidity Pressure Visibility Wind Dir Wind Speed Gust Speed Precip Events Conditions
12:15 AM 48.2 °F - 14.0 °F 25% 30.31 in 10.0 mi NNW 3.5 mph - N/A   Clear
12:35 AM 48.2 °F - 14.0 °F 25% 30.30 in 10.0 mi North 5.8 mph - N/A   Clear
12:55 AM 46.4 °F 41.5 °F 14.0 °F 27% 30.28 in 10.0 mi North 10.4 mph 18.4 mph N/A   Clear
1:15 AM 48.2 °F - 14.0 °F 25% 30.25 in 10.0 mi North 12.7 mph 20.7 mph N/A   Clear
1:35 AM 50.0 °F - 12.2 °F 22% 30.25 in 10.0 mi NW 16.1 mph 27.6 mph N/A   Clear
1:55 AM 50.0 °F - 10.4 °F 20% 30.24 in 10.0 mi WNW 23.0 mph 40.3 mph N/A   Clear
2:15 AM 51.8 °F - 8.6 °F 18% 30.23 in 10.0 mi West 25.3 mph 48.3 mph N/A   Clear
2:35 AM 51.8 °F - 8.6 °F 18% 30.23 in 10.0 mi West 23.0 mph 41.4 mph N/A   Clear
2:55 AM 51.8 °F - 10.4 °F 19% 30.23 in 10.0 mi NW 19.6 mph 39.1 mph N/A   Clear
3:15 AM 51.8 °F - 10.4 °F 19% 30.23 in 10.0 mi NW 13.8 mph 34.5 mph N/A   Clear
3:35 AM 51.8 °F - 10.4 °F 19% 30.24 in 10.0 mi West 17.3 mph 32.2 mph N/A   Clear
3:55 AM 51.8 °F - 12.2 °F 21% 30.24 in 10.0 mi WNW 13.8 mph 29.9 mph N/A   Clear
4:15 AM 51.8 °F - 12.2 °F 21% 30.23 in 10.0 mi NW 18.4 mph 34.5 mph N/A   Clear
4:35 AM 50.0 °F - 12.2 °F 22% 30.24 in 10.0 mi WNW 15.0 mph 26.5 mph N/A   Clear
4:55 AM 51.8 °F - 14.0 °F 22% 30.24 in 10.0 mi WNW 9.2 mph 16.1 mph N/A   Clear
5:15 AM 51.8 °F - 14.0 °F 22% 30.25 in 10.0 mi WNW 10.4 mph 17.3 mph N/A   Clear
5:35 AM 51.8 °F - 17.6 °F 26% 30.25 in 10.0 mi West 5.8 mph - N/A   Clear
5:54 AM 51.8 °F - 17.6 °F 26% 30.25 in 10.0 mi WSW 4.6 mph - N/A   Clear
6:15 AM 51.8 °F - 15.8 °F 24% 30.25 in 10.0 mi NW 11.5 mph 20.7 mph N/A   Clear
6:35 AM 51.8 °F - 14.0 °F 22% 30.26 in 10.0 mi WNW 8.1 mph - N/A   Clear
6:55 AM 51.8 °F - 12.2 °F 21% 30.26 in 10.0 mi NW 9.2 mph 19.6 mph N/A   Clear
7:14 AM 50.0 °F - 12.2 °F 22% 30.26 in 10.0 mi NNW 9.2 mph 18.4 mph N/A   Clear
7:35 AM 50.0 °F - 12.2 °F 22% 30.27 in 10.0 mi North 6.9 mph 16.1 mph N/A   Clear
7:55 AM 50.0 °F - 12.2 °F 22% 30.27 in 10.0 mi North 4.6 mph - N/A   Clear
8:15 AM 51.8 °F - 12.2 °F 21% 30.27 in 10.0 mi North 5.8 mph - N/A   Clear
8:35 AM 51.8 °F - 14.0 °F 22% 30.26 in 10.0 mi North 5.8 mph - N/A   Clear
8:54 AM 51.8 °F - 15.8 °F 24% 30.26 in 10.0 mi Calm Calm - N/A   Clear
9:15 AM 53.6 °F - 19.4 °F 26% 30.27 in 10.0 mi NW 3.5 mph - N/A   Clear
9:35 AM 55.4 °F - 19.4 °F 25% 30.27 in 10.0 mi Calm Calm - N/A   Clear
9:55 AM 55.4 °F - 19.4 °F 25% 30.27 in 10.0 mi NE 3.5 mph - N/A   Clear
10:15 AM 57.2 °F - 21.2 °F 25% 30.27 in 10.0 mi North 3.5 mph - N/A   Clear
10:35 AM 60.8 °F - 21.2 °F 22% 30.27 in 10.0 mi WSW 3.5 mph - N/A   Clear
10:54 AM 60.8 °F - 19.4 °F 20% 30.26 in 10.0 mi Calm Calm - N/A   Clear
11:15 AM 60.8 °F - 21.2 °F 22% 30.26 in 10.0 mi WNW 9.2 mph 19.6 mph N/A   Clear
11:35 AM 62.6 °F - 21.2 °F 20% 30.25 in 10.0 mi West 4.6 mph - N/A   Clear
11:55 AM 62.6 °F - 21.2 °F 20% 30.24 in 10.0 mi NW 9.2 mph 20.7 mph N/A   Clear
12:15 PM 62.6 °F - 21.2 °F 20% 30.24 in 10.0 mi West 11.5 mph 21.9 mph N/A   Clear
12:35 PM 62.6 °F - 21.2 °F 20% 30.24 in 10.0 mi West 9.2 mph 26.5 mph N/A   Clear
12:55 PM 64.4 °F - 21.2 °F 19% 30.23 in 10.0 mi WSW 19.6 mph 34.5 mph N/A   Clear
1:15 PM 64.4 °F - 21.2 °F 19% 30.22 in 10.0 mi West 11.5 mph 28.8 mph N/A   Clear
1:35 PM 64.4 °F - 21.2 °F 19% 30.21 in 10.0 mi WSW 15.0 mph 27.6 mph N/A   Clear
1:55 PM 66.2 °F - 21.2 °F 18% 30.21 in 10.0 mi WSW 8.1 mph 18.4 mph N/A   Clear
2:15 PM 68.0 °F - 23.0 °F 18% 30.21 in 10.0 mi West 4.6 mph 19.6 mph N/A   Clear
2:35 PM 68.0 °F - 23.0 °F 18% 30.21 in 10.0 mi West 6.9 mph 20.7 mph N/A   Clear
2:54 PM 66.2 °F - 21.2 °F 18% 30.21 in 10.0 mi WSW 9.2 mph 26.5 mph N/A   Clear
3:15 PM 66.2 °F - 23.0 °F 19% 30.20 in 10.0 mi West 13.8 mph 23.0 mph N/A   Clear
3:34 PM 68.0 °F - 23.0 °F 18% 30.20 in 10.0 mi West 13.8 mph 24.2 mph N/A   Clear
3:55 PM 68.0 °F - 23.0 °F 18% 30.20 in 10.0 mi WNW 8.1 mph 24.2 mph N/A   Clear
4:15 PM 66.2 °F - 23.0 °F 19% 30.20 in 10.0 mi West 15.0 mph 25.3 mph N/A   Clear
4:35 PM 64.4 °F - 21.2 °F 19% 30.20 in 10.0 mi West 16.1 mph 27.6 mph N/A   Clear
4:55 PM 64.4 °F - 23.0 °F 21% 30.21 in 10.0 mi West 12.7 mph 21.9 mph N/A   Clear
5:15 PM 64.4 °F - 21.2 °F 19% 30.21 in 10.0 mi West 20.7 mph 28.8 mph N/A   Clear
5:35 PM 64.4 °F - 19.4 °F 18% 30.22 in 10.0 mi WNW 10.4 mph 24.2 mph N/A   Clear
5:54 PM 62.6 °F - 14.0 °F 15% 30.22 in 10.0 mi WNW 12.7 mph 25.3 mph N/A   Clear
6:15 PM 60.8 °F - 10.4 °F 14% 30.23 in 10.0 mi WNW 10.4 mph 24.2 mph N/A   Clear
6:35 PM 59.0 °F - 14.0 °F 17% 30.23 in 10.0 mi WNW 3.5 mph - N/A   Clear
6:55 PM 59.0 °F - 15.8 °F 19% 30.23 in 10.0 mi NNW 6.9 mph - N/A   Clear
7:15 PM 59.0 °F - 15.8 °F 19% 30.23 in 10.0 mi NNW 6.9 mph - N/A   Clear
7:35 PM 55.4 °F - 17.6 °F 23% 30.23 in 10.0 mi WNW 6.9 mph - N/A   Clear
7:55 PM 55.4 °F - 15.8 °F 21% 30.24 in 10.0 mi WNW 6.9 mph - N/A   Clear
8:15 PM 55.4 °F - 15.8 °F 21% 30.25 in 10.0 mi NW 4.6 mph - N/A   Clear
8:35 PM 55.4 °F - 15.8 °F 21% 30.25 in 10.0 mi NNW 5.8 mph - N/A   Clear
8:55 PM 55.4 °F - 17.6 °F 23% 30.25 in 10.0 mi NNW 5.8 mph - N/A   Clear
9:15 PM 55.4 °F - 15.8 °F 21% 30.26 in 10.0 mi WNW 11.5 mph 20.7 mph N/A   Clear
9:35 PM 53.6 °F - 17.6 °F 24% 30.27 in 10.0 mi North 5.8 mph - N/A   Clear
9:54 PM 53.6 °F - 17.6 °F 24% 30.27 in 10.0 mi NNW 5.8 mph - N/A   Clear
10:15 PM 53.6 °F - 14.0 °F 21% 30.28 in 10.0 mi WNW 15.0 mph 21.9 mph N/A   Clear
10:34 PM 53.6 °F - 14.0 °F 21% 30.27 in 10.0 mi NW 6.9 mph 20.7 mph N/A   Clear
10:55 PM 53.6 °F - 14.0 °F 21% 30.27 in 10.0 mi NNW 8.1 mph 19.6 mph N/A   Clear
11:14 PM 53.6 °F - 14.0 °F 21% 30.27 in 10.0 mi NW 10.4 mph 19.6 mph N/A   Clear
11:35 PM 53.6 °F - 14.0 °F 21% 30.27 in 10.0 mi WNW 9.2 mph 21.9 mph N/A   Clear
11:55 PM 51.8 °F - 15.8 °F 24% 30.27 in 10.0 mi NW 6.9 mph - N/A   Clear